User: anonymous   Login
Location: Sandbanks Provincial Park
(47.6073°N, 57.6428°W)
Time: 03:37:03
(UTC-03:-30)
Language:

Cosmos 2034 Rocket - Orbit

View from above orbital plane
View from above orbital plane
View from above satellite
View from above satellite

Ground track
Ground track

The orbit data is extracted from the following two-line orbital elements,

1 20150U 89059B   15030.90198716 -.00000014  00000-0 -30137-4 0  1109
2 20150 082.9402 018.2172 0029230 184.3930 235.3798 13.75593915281017
Epoch (UTC): 30 January 2015 21:38:51
Eccentricity: 0.0029230
inclination: 82.9402°
perigee height: 958 km
apogee height: 1001 km
right ascension of ascending node: 18.2172°
argument of perigee: 184.3930°
revolutions per day: 13.75593915
mean anomaly at epoch: 235.3798°
orbit number at epoch: 28101

The dashed part of the orbit path shows where the satellite is in the earth's shadow,  

DLR